When you browse on this site, cookies collect data to enhance your experience and personalize the content and advertising you see.
Visit our Privacy Policy to learn more. By continuing to use the site, you agree to this use of cookies and data.

Stündliche Wetter Jubbada Hoose

Heute, 21 September, Montag

Zeit Temperatur Niederschläge Wind Luftdruck Luftfeuchtigkeit
00:00 +25°C° 0 mm 3 m/S 756 mmHg 77%
01:00 +25°C° 0 mm 3 m/S 756 mmHg 80%
02:00 +24°C° 0 mm 2 m/S 756 mmHg 83%
03:00 +24°C° 0 mm 2 m/S 756 mmHg 86%
04:00 +23°C° 0 mm 2 m/S 756 mmHg 88%
05:00 +23°C° 0 mm 2 m/S 756 mmHg 90%
06:00 +23°C° 0 mm 2 m/S 757 mmHg 91%
07:00 +25°C° 0 mm 2 m/S 757 mmHg 80%
08:00 +27°C° 0 mm 3 m/S 757 mmHg 68%
09:00 +30°C° 0 mm 4 m/S 757 mmHg 53%
10:00 +33°C° 0 mm 4 m/S 757 mmHg 46%
11:00 +35°C° 0 mm 4 m/S 757 mmHg 38%
12:00 +36°C° 0 mm 4 m/S 757 mmHg 31%
13:00 +37°C° 0 mm 4 m/S 756 mmHg 30%
14:00 +39°C° 0 mm 5 m/S 755 mmHg 29%
15:00 +39°C° 0 mm 5 m/S 754 mmHg 28%
16:00 +36°C° 0 mm 6 m/S 754 mmHg 33%
17:00 +35°C° 0 mm 7 m/S 754 mmHg 38%
18:00 +33°C° 0 mm 7 m/S 754 mmHg 42%
19:00 +30°C° 0 mm 7 m/S 754 mmHg 49%
20:00 +29°C° 0 mm 6 m/S 755 mmHg 57%
21:00 +27°C° 0 mm 6 m/S 755 mmHg 64%
22:00 +27°C° 0 mm 5 m/S 756 mmHg 68%
23:00 +26°C° 0 mm 5 m/S 756 mmHg 72%

Morgen, 22 September, Dienstag

Zeit Temperatur Niederschläge Wind Luftdruck Luftfeuchtigkeit
00:00 +26°C° 0 mm 4 m/S 756 mmHg 76%
01:00 +26°C° 0 mm 4 m/S 756 mmHg 77%
02:00 +26°C° 0 mm 3 m/S 756 mmHg 78%
03:00 +26°C° 0 mm 3 m/S 755 mmHg 79%
04:00 +26°C° 0 mm 3 m/S 756 mmHg 75%
05:00 +27°C° 0 mm 3 m/S 756 mmHg 71%
06:00 +27°C° 0 mm 4 m/S 757 mmHg 67%
07:00 +28°C° 0 mm 4 m/S 757 mmHg 62%
08:00 +30°C° 0 mm 4 m/S 758 mmHg 58%
09:00 +32°C° 0 mm 5 m/S 758 mmHg 53%
10:00 +33°C° 0 mm 5 m/S 758 mmHg 49%
11:00 +34°C° 0 mm 5 m/S 757 mmHg 46%
12:00 +35°C° 0 mm 4 m/S 757 mmHg 42%
13:00 +36°C° 0 mm 5 m/S 756 mmHg 41%
14:00 +36°C° 0 mm 5 m/S 755 mmHg 39%
15:00 +37°C° 0 mm 5 m/S 754 mmHg 37%
16:00 +36°C° 0 mm 5 m/S 754 mmHg 40%
17:00 +35°C° 0 mm 5 m/S 754 mmHg 43%
18:00 +34°C° 0 mm 6 m/S 754 mmHg 46%
19:00 +32°C° 0 mm 5 m/S 754 mmHg 54%
20:00 +30°C° 0 mm 5 m/S 755 mmHg 62%
21:00 +28°C° 0 mm 5 m/S 756 mmHg 70%
22:00 +28°C° 0 mm 4 m/S 756 mmHg 73%
23:00 +27°C° 0 mm 4 m/S 756 mmHg 76%

übermorgen, 23 September, Mittwoch

Zeit Temperatur Niederschläge Wind Luftdruck Luftfeuchtigkeit
00:00 +27°C° 0 mm 3 m/S 756 mmHg 79%
01:00 +27°C° 0.1 mm 3 m/S 756 mmHg 79%
02:00 +27°C° 0.1 mm 3 m/S 756 mmHg 80%
03:00 +27°C° 0.1 mm 3 m/S 756 mmHg 80%
04:00 +26°C° 0.1 mm 3 m/S 756 mmHg 82%
05:00 +26°C° 0.1 mm 3 m/S 756 mmHg 83%
06:00 +26°C° 0.1 mm 2 m/S 757 mmHg 85%
07:00 +27°C° 0 mm 3 m/S 757 mmHg 76%
08:00 +29°C° 0 mm 3 m/S 758 mmHg 68%
09:00 +32°C° 0 mm 4 m/S 758 mmHg 59%
10:00 +33°C° 0 mm 4 m/S 757 mmHg 55%
11:00 +34°C° 0 mm 4 m/S 757 mmHg 50%
12:00 +36°C° 0 mm 4 m/S 756 mmHg 46%
13:00 +35°C° 0 mm 4 m/S 755 mmHg 46%
14:00 +35°C° 0 mm 5 m/S 754 mmHg 46%
15:00 +35°C° 0 mm 5 m/S 753 mmHg 46%
16:00 +34°C° 0 mm 5 m/S 754 mmHg 49%
17:00 +33°C° 0 mm 6 m/S 754 mmHg 51%
18:00 +32°C° 0 mm 6 m/S 754 mmHg 54%
19:00 +30°C° 0 mm 6 m/S 755 mmHg 60%
20:00 +29°C° 0 mm 5 m/S 755 mmHg 66%
21:00 +28°C° 0 mm 5 m/S 756 mmHg 72%
22:00 +27°C° 0 mm 4 m/S 756 mmHg 74%
23:00 +27°C° 0 mm 4 m/S 756 mmHg 76%

24 September, Donnerstag

Zeit Temperatur Niederschläge Wind Luftdruck Luftfeuchtigkeit
00:00 +27°C° 0 mm 3 m/S 756 mmHg 78%
01:00 +26°C° 0 mm 3 m/S 756 mmHg 79%
02:00 +26°C° 0 mm 2 m/S 755 mmHg 80%
03:00 +26°C° 0 mm 2 m/S 755 mmHg 81%
04:00 +25°C° 0 mm 2 m/S 756 mmHg 82%
05:00 +25°C° 0 mm 2 m/S 756 mmHg 83%
06:00 +25°C° 0 mm 2 m/S 756 mmHg 85%
07:00 +27°C° 0 mm 3 m/S 757 mmHg 74%
08:00 +29°C° 0 mm 4 m/S 757 mmHg 64%
09:00 +32°C° 0 mm 5 m/S 758 mmHg 53%
10:00 +33°C° 0 mm 5 m/S 757 mmHg 50%
11:00 +34°C° 0 mm 4 m/S 757 mmHg 46%
12:00 +35°C° 0 mm 4 m/S 756 mmHg 43%
13:00 +35°C° 0 mm 5 m/S 755 mmHg 41%
14:00 +36°C° 0 mm 5 m/S 754 mmHg 39%
15:00 +36°C° 0 mm 5 m/S 753 mmHg 37%
16:00 +35°C° 0 mm 6 m/S 754 mmHg 40%
17:00 +34°C° 0 mm 6 m/S 754 mmHg 43%
18:00 +33°C° 0 mm 7 m/S 754 mmHg 46%
19:00 +30°C° 0 mm 6 m/S 754 mmHg 54%
20:00 +28°C° 0 mm 6 m/S 755 mmHg 61%
21:00 +27°C° 0 mm 5 m/S 756 mmHg 68%
22:00 +26°C° 0 mm 4 m/S 755 mmHg 71%
23:00 +26°C° 0 mm 4 m/S 755 mmHg 74%

25 September, Freitag

Zeit Temperatur Niederschläge Wind Luftdruck Luftfeuchtigkeit
00:00 +26°C° 0 mm 3 m/S 755 mmHg 77%
01:00 +25°C° 0 mm 3 m/S 755 mmHg 78%
02:00 +25°C° 0 mm 3 m/S 755 mmHg 80%
03:00 +25°C° 0 mm 3 m/S 754 mmHg 81%
04:00 +24°C° 0 mm 2 m/S 755 mmHg 82%
05:00 +24°C° 0 mm 2 m/S 755 mmHg 84%
06:00 +24°C° 0 mm 2 m/S 756 mmHg 86%
07:00 +26°C° 0 mm 3 m/S 756 mmHg 75%
08:00 +28°C° 0 mm 3 m/S 757 mmHg 65%
09:00 +30°C° 0 mm 4 m/S 757 mmHg 55%
10:00 +33°C° 0 mm 5 m/S 757 mmHg 48%
11:00 +35°C° 0 mm 5 m/S 756 mmHg 41%
12:00 +37°C° 0 mm 5 m/S 756 mmHg 34%
13:00 +36°C° 0 mm 5 m/S 755 mmHg 34%
14:00 +36°C° 0 mm 5 m/S 754 mmHg 35%
15:00 +36°C° 0 mm 6 m/S 753 mmHg 35%
16:00 +35°C° 0 mm 6 m/S 753 mmHg 38%
17:00 +33°C° 0 mm 7 m/S 753 mmHg 42%
18:00 +32°C° 0 mm 7 m/S 753 mmHg 46%
19:00 +30°C° 0 mm 7 m/S 753 mmHg 53%
20:00 +28°C° 0 mm 6 m/S 754 mmHg 61%
21:00 +27°C° 0 mm 6 m/S 754 mmHg 69%
22:00 +27°C° 0 mm 5 m/S 754 mmHg 72%
23:00 +26°C° 0 mm 4 m/S 755 mmHg 75%

26 September, Samstag

Zeit Temperatur Niederschläge Wind Luftdruck Luftfeuchtigkeit
00:00 +26°C° 0 mm 3 m/S 755 mmHg 79%
01:00 +25°C° 0 mm 3 m/S 754 mmHg 81%
02:00 +25°C° 0 mm 2 m/S 754 mmHg 83%
03:00 +25°C° 0 mm 2 m/S 754 mmHg 85%
04:00 +24°C° 0 mm 2 m/S 754 mmHg 86%
05:00 +24°C° 0 mm 2 m/S 755 mmHg 87%
06:00 +24°C° 0 mm 2 m/S 755 mmHg 88%
07:00 +26°C° 0 mm 2 m/S 755 mmHg 76%
08:00 +28°C° 0 mm 3 m/S 756 mmHg 64%
09:00 +30°C° 0 mm 4 m/S 756 mmHg 53%
10:00 +32°C° 0 mm 4 m/S 756 mmHg 49%
11:00 +33°C° 0 mm 4 m/S 755 mmHg 46%
12:00 +34°C° 0 mm 4 m/S 755 mmHg 43%
13:00 +35°C° 0 mm 4 m/S 754 mmHg 40%
14:00 +36°C° 0 mm 4 m/S 753 mmHg 38%
15:00 +36°C° 0 mm 5 m/S 752 mmHg 36%
16:00 +35°C° 0 mm 5 m/S 752 mmHg 38%
17:00 +34°C° 0 mm 5 m/S 752 mmHg 40%
18:00 +33°C° 0 mm 5 m/S 752 mmHg 42%
19:00 +32°C° 0 mm 5 m/S 753 mmHg 49%
20:00 +29°C° 0 mm 5 m/S 753 mmHg 56%
21:00 +28°C° 0 mm 5 m/S 754 mmHg 63%
22:00 +27°C° 0 mm 4 m/S 754 mmHg 68%
23:00 +26°C° 0 mm 3 m/S 754 mmHg 73%
Mehr zeigen